Regional Weather Roundup
Issued by NWS

Home | Current Version | Previous Version | Graphics & Text | Print | Product List | Glossary Off
Versions: 1 2 3 4 5 6 7 8 9 10 11 12 13 14 15 16 17 18 19 20 21 22 23 24 25 26 27 28 29 30 31 32 33 34 35 36 37 38 39 40 41 42 43 44 45 46 47 48 49 50

000
ASUS43 KLSX 240857
RWRMO

WEATHER SUMMARY FOR MISSOURI
NATIONAL WEATHER SERVICE SPRINGFIELD MO
400 AM CDT THU MAY 24 2018

NOTE: "FAIR" INDICATES FEW OR NO CLOUDS BELOW 12,000 FEET WITH NO
       SIGNIFICANT WEATHER AND/OR OBSTRUCTIONS TO VISIBILITY.
       CURRENT SKY AND/OR WEATHER CONDITIONS ARE NOT AVAILABLE FOR
       CHILLICOTHE AND FARMINGTON.

MOZ001>031-035>038-043-044-053-054-241000-
...NORTHERN AND WESTERN MISSOURI...

CITY           SKY/WX    TMP DP  RH WIND       PRES   REMARKS
KANSAS CTY INT CLOUDY    66  63  90 S7        30.09R
LEE`S SUMMIT   PTCLDY    66  64  93 S6        30.10R
ST JOSEPH      PTCLDY    67  65  93 S3        30.08R
CHILLICOTHE      N/A     67  64  90 CALM      30.10S

$$
MOZ066>068-077>081-088>096-101>105-241000-
...SOUTHWEST MISSOURI...

CITY           SKY/WX    TMP DP  RH WIND       PRES   REMARKS
SPRINGFIELD    CLOUDY    67  63  87 SE7       30.10R
JOPLIN         CLOUDY    67  64  90 SE3       30.10R

$$
MOZ032>034-039>042-045>050-055>058-069>072-241000-
...CENTRAL MISSOURI...

CITY           SKY/WX    TMP DP  RH WIND       PRES   REMARKS
COLUMBIA       NOT AVBL
JEFFERSON CITY CLEAR     67  65  93 CALM      30.10S
ROLLA          PTCLDY    66  64  93 CALM      30.13S
SEDALIA        PTCLDY    67  67 100 S7        30.11F
WARRENSBURG    PTCLDY    64  63  94 SE5       30.09S

$$
MOZ051-052-059>065-241000-
...EAST CENTRAL MISSOURI...

CITY           SKY/WX    TMP DP  RH WIND       PRES   REMARKS
ST LOUIS INTL  PTCLDY    69  63  81 E3        30.12R

$$
MOZ072>076-082>087-097>100-106>115-241000-
...SOUTH CENTRAL AND SOUTHEAST MISSOURI...

CITY           SKY/WX    TMP DP  RH WIND       PRES   REMARKS
CAPE GIRARDEAU FAIR      66  64  93 CALM      30.09S
POPLAR BLUFF   FAIR      68  68 100 N3        30.08S
WEST PLAINS    CLOUDY    66  64  93 CALM      30.13S

$$




USA.gov is the U.S. government's official web portal to all federal, state and local government web resources and services.